Weather History for EHVK - October, 2012

Change the Weather History Date:

Tuesday, October 16, 2012

  Actual Average Record
Temperature  
Mean Temperature 52 °F -  
Max Temperature 57 °F 51 °F 64 °F (2007)
Min Temperature 46 °F 39 °F 33 °F (1997)
Degree Days  
Heating Degree Days 14    
Growing Degree Days 2 (Base 50)    
Moisture  
Dew Point 47 °F    
Average Humidity 86    
Maximum Humidity 100    
Minimum Humidity 72    
Precipitation  
Precipitation 0.00 in - - ()
Sea Level Pressure  
Sea Level Pressure 29.66 in    
Wind  
Wind Speed 12 mph ()    
Max Wind Speed 17 mph    
Max Gust Speed -    
Visibility 5.9 miles    
Events Rain    
Averages and records for this station are not official NWS values.
T = Trace of Precipitation, MM = Missing Value Source: Averaged Metar Reports

Daily Weather History Graph

Daily Weather History Graph

Search for Another Location

Airport or City:

Trip Planner

Search our weather history database for the weather conditions in past years. The results will help you decide how hot, cold, wet, or windy it might be!

Date:

Astronomy

Oct. 16, 2012 Rise Set
Actual Time 8:03 AM CEST 6:40 PM CEST
Civil Twilight 7:29 AM CEST 7:14 PM CEST
Nautical Twilight 6:50 AM CEST 7:53 PM CEST
Astronomical Twilight 6:11 AM CEST 8:32 PM CEST
Moon 9:20 AM CEST (10/16) 6:56 PM CEST (10/16)
Length of Visible Light 11h 45m
Length of Day
10h 37m
New Moon, 1% of the Moon is Illuminated
Oct 16
New Moon
Oct 22
First Quarter
Oct 29
Full
Nov 7
Last Quarter
Nov 13
New

Hourly Weather History & Observations

Time (CEST) Temp. Windchill Dew Point Humidity Pressure Visibility Wind Dir Wind Speed Gust Speed Precip Events Conditions
12:25 AM 50.0 °F - 44.6 °F 82% 29.71 in 6.2 mi SSW 12.7 mph - N/A   Overcast
12:55 AM 50.0 °F - 44.6 °F 82% 29.71 in 6.2 mi SSW 12.7 mph - N/A   Overcast
1:25 AM 50.0 °F - 44.6 °F 82% 29.71 in 6.2 mi SSW 12.7 mph - N/A   Partly Cloudy
1:55 AM 50.0 °F - 44.6 °F 82% 29.71 in 6.2 mi SSW 12.7 mph - N/A   Partly Cloudy
2:25 AM 48.2 °F - 44.6 °F 87% 29.71 in 6.2 mi South 11.5 mph - N/A   Unknown
2:55 AM 48.2 °F - 44.6 °F 87% 29.71 in 6.2 mi South 11.5 mph - N/A   Unknown
3:25 AM 48.2 °F - 44.6 °F 87% 29.71 in 6.2 mi SSW 12.7 mph - N/A   Unknown
3:55 AM 48.2 °F - 44.6 °F 87% 29.68 in 6.2 mi South 11.5 mph - N/A   Mostly Cloudy
4:25 AM 48.2 °F - 42.8 °F 82% 29.68 in 6.2 mi South 11.5 mph - N/A   Overcast
4:55 AM 48.2 °F - 42.8 °F 82% 29.68 in 6.2 mi South 10.4 mph - N/A   Scattered Clouds
5:25 AM 48.2 °F - 42.8 °F 82% 29.68 in 6.2 mi South 10.4 mph - N/A   Scattered Clouds
5:55 AM 48.2 °F - 42.8 °F 82% 29.65 in 6.2 mi South 10.4 mph - N/A   Overcast
6:25 AM 46.4 °F 42.4 °F 42.8 °F 87% 29.65 in 6.2 mi SSE 8.1 mph - N/A   Overcast
6:55 AM 46.4 °F 41.9 °F 42.8 °F 87% 29.65 in 6.2 mi South 9.2 mph - N/A   Overcast
7:25 AM 48.2 °F - 42.8 °F 82% 29.62 in 6.2 mi South 11.5 mph - N/A   Mostly Cloudy
7:55 AM 48.2 °F - 42.8 °F 82% 29.62 in 6.2 mi South 12.7 mph - N/A   Overcast
8:25 AM 48.2 °F - 44.6 °F 87% 29.62 in 6.2 mi South 12.7 mph - N/A Rain Light Rain
8:55 AM 48.2 °F - 44.6 °F 87% 29.62 in 6.2 mi South 11.5 mph - N/A   Overcast
9:25 AM 50.0 °F - 44.6 °F 82% 29.62 in 6.2 mi South 12.7 mph - N/A   Mostly Cloudy
9:27 AM 48.2 °F - 44.6 °F 87% 29.62 in 6.2 mi South 12.7 mph - N/A   Mostly Cloudy
9:40 AM 50.0 °F - 44.6 °F 82% 29.62 in 6.2 mi South 13.8 mph - N/A   Mostly Cloudy
9:41 AM 50.0 °F - 44.6 °F 82% 29.62 in 6.2 mi South 13.8 mph - N/A Rain Light Rain
9:55 AM 50.0 °F - 44.6 °F 82% 29.62 in 5.6 mi South 15.0 mph - N/A Rain Light Rain
10:10 AM 50.0 °F - 44.6 °F 82% 29.62 in 6.2 mi South 16.1 mph - N/A   Overcast
10:25 AM 50.0 °F - 44.6 °F 82% 29.62 in 6.2 mi South 13.8 mph - N/A Rain Light Rain
10:28 AM 48.2 °F - 44.6 °F 87% 29.62 in 6.2 mi South 13.8 mph - N/A Rain Light Rain Showers
10:33 AM 48.2 °F - 44.6 °F 87% 29.62 in 2.5 mi South 15.0 mph - N/A Rain Rain
10:41 AM 48.2 °F - 46.4 °F 93% 29.62 in 2.2 mi South 16.1 mph - N/A Rain Drizzle
10:46 AM 48.2 °F - 46.4 °F 93% 29.62 in 3.7 mi South 16.1 mph - N/A Rain Rain
10:47 AM 48.2 °F - 46.4 °F 93% 29.62 in 3.1 mi South 15.0 mph - N/A Rain Light Rain
10:55 AM 48.2 °F - 46.4 °F 93% 29.62 in - South 15.0 mph - N/A Rain Light Rain
11:08 AM 48.2 °F - 46.4 °F 93% 29.62 in 6.2 mi South 13.8 mph - N/A   Light Drizzle
11:25 AM 48.2 °F - 46.4 °F 93% 29.62 in 3.7 mi South 13.8 mph - N/A Rain Light Rain
11:34 AM 48.2 °F - 46.4 °F 93% 29.62 in 5.6 mi South 12.7 mph - N/A Rain Light Rain
11:43 AM 48.2 °F - 46.4 °F 93% 29.62 in 6.2 mi South 13.8 mph - N/A Rain Rain
11:55 AM 48.2 °F - 46.4 °F 93% 29.62 in 5.0 mi SSW 12.7 mph - N/A Rain Light Rain Showers
11:58 AM 48.2 °F - 46.4 °F 93% 29.62 in 5.6 mi SSW 12.7 mph - N/A Rain Light Rain Showers
12:03 PM 48.2 °F - 46.4 °F 93% 29.62 in 6.2 mi SSW 12.7 mph - N/A Rain Light Rain
12:24 PM 50.0 °F - 48.2 °F 94% 29.65 in 1.6 mi SSW 15.0 mph - N/A   Mostly Cloudy
12:25 PM 50.0 °F - 48.2 °F 94% 29.65 in - SSW 15.0 mph - N/A   Overcast
12:27 PM 50.0 °F - 48.2 °F 94% 29.62 in 1.7 mi SSW 16.1 mph - N/A Rain Light Rain
12:34 PM 50.0 °F - 48.2 °F 94% 29.62 in - South 17.3 mph - N/A   Drizzle
12:43 PM 50.0 °F - 48.2 °F 94% 29.62 in 6.2 mi SSW 16.1 mph - N/A   Mostly Cloudy
12:46 PM 50.0 °F - 48.2 °F 94% 29.62 in 6.2 mi SSW 16.1 mph - N/A   Mostly Cloudy
12:55 PM 50.0 °F - 48.2 °F 94% 29.62 in 6.2 mi SSW 15.0 mph - N/A   Overcast
12:56 PM 50.0 °F - 50.0 °F 100% 29.62 in 6.2 mi SSW 13.8 mph - N/A   Mostly Cloudy
1:08 PM 51.8 °F - 50.0 °F 94% 29.62 in 6.2 mi SSW 15.0 mph - N/A   Mostly Cloudy
1:10 PM 51.8 °F - 48.2 °F 88% 29.62 in 6.2 mi SSW 15.0 mph - N/A   Mostly Cloudy
1:24 PM 51.8 °F - 50.0 °F 94% 29.65 in 6.2 mi SSW 16.1 mph - N/A   Overcast
1:25 PM 51.8 °F - 50.0 °F 94% 29.65 in 6.2 mi SSW 16.1 mph - N/A   Mostly Cloudy
1:33 PM 51.8 °F - 50.0 °F 94% 29.65 in 6.2 mi SSW 17.3 mph - N/A   Mostly Cloudy
1:40 PM 51.8 °F - 50.0 °F 94% 29.65 in 6.2 mi SSW 16.1 mph - N/A   Overcast
1:45 PM 51.8 °F - 50.0 °F 94% 29.65 in 6.2 mi SSW 16.1 mph - N/A   Overcast
1:55 PM 53.6 °F - 50.0 °F 88% 29.65 in 6.2 mi SSW 15.0 mph - N/A   Overcast
2:04 PM 53.6 °F - 50.0 °F 88% 29.65 in 6.2 mi SSW 15.0 mph - N/A   Mostly Cloudy
2:13 PM 53.6 °F - 50.0 °F 88% 29.65 in 6.2 mi SSW 16.1 mph - N/A   Mostly Cloudy
2:25 PM 53.6 °F - 50.0 °F 88% 29.65 in 6.2 mi SSW 17.3 mph - N/A   Mostly Cloudy
2:37 PM 53.6 °F - 50.0 °F 88% 29.65 in 6.2 mi SSW 17.3 mph - N/A   Mostly Cloudy
2:44 PM 53.6 °F - 50.0 °F 88% 29.65 in 6.2 mi SSW 16.1 mph - N/A   Mostly Cloudy
2:48 PM 55.4 °F - 50.0 °F 82% 29.65 in 6.2 mi SW 16.1 mph - N/A   Mostly Cloudy
2:55 PM 53.6 °F - 50.0 °F 88% 29.65 in 6.2 mi SW 16.1 mph - N/A   Mostly Cloudy
2:59 PM 53.6 °F - 50.0 °F 88% 29.65 in 6.2 mi SSW 16.1 mph - N/A   Mostly Cloudy
3:06 PM 55.4 °F - 50.0 °F 82% 29.65 in 6.2 mi SSW 17.3 mph - N/A   Mostly Cloudy
3:25 PM 55.4 °F - 50.0 °F 82% 29.65 in 6.2 mi SSW 15.0 mph - N/A   Mostly Cloudy
3:29 PM 55.4 °F - 50.0 °F 82% 29.65 in 6.2 mi SSW 15.0 mph - N/A   Mostly Cloudy
3:35 PM 55.4 °F - 50.0 °F 82% 29.65 in 6.2 mi SSW 15.0 mph - N/A   Scattered Clouds
3:39 PM 55.4 °F - 50.0 °F 82% 29.65 in 6.2 mi SSW 13.8 mph - N/A   Mostly Cloudy
3:51 PM 55.4 °F - 48.2 °F 77% 29.65 in 6.2 mi SSW 13.8 mph - N/A   Mostly Cloudy
3:55 PM 55.4 °F - 50.0 °F 82% 29.65 in 6.2 mi SSW 15.0 mph - N/A   Mostly Cloudy
3:56 PM 55.4 °F - 50.0 °F 82% 29.65 in 6.2 mi SSW 15.0 mph - N/A   Overcast
4:08 PM 55.4 °F - 50.0 °F 82% 29.65 in 6.2 mi SSW 12.7 mph - N/A   Mostly Cloudy
4:10 PM 55.4 °F - 50.0 °F 82% 29.65 in 6.2 mi SSW 12.7 mph - N/A   Mostly Cloudy
4:20 PM 57.2 °F - 50.0 °F 77% 29.65 in 6.2 mi SSW 12.7 mph - N/A   Mostly Cloudy
4:25 PM 55.4 °F - 50.0 °F 82% 29.65 in 6.2 mi SSW 13.8 mph - N/A   Mostly Cloudy
4:45 PM 55.4 °F - 48.2 °F 77% 29.65 in 6.2 mi SSW 17.3 mph - N/A   Partly Cloudy
4:55 PM 57.2 °F - 48.2 °F 72% 29.65 in 6.2 mi SSW 16.1 mph - N/A   Mostly Cloudy
5:25 PM 55.4 °F - 48.2 °F 77% 29.65 in 6.2 mi SSW 10.4 mph - N/A   Unknown
5:55 PM 55.4 °F - 50.0 °F 82% 29.68 in 6.2 mi SSW 9.2 mph - N/A   Mostly Cloudy
6:25 PM 55.4 °F - 48.2 °F 77% 29.68 in 6.2 mi SW 13.8 mph - N/A   Partly Cloudy
6:55 PM 51.8 °F - 46.4 °F 82% 29.71 in 6.2 mi SW 10.4 mph - N/A   Unknown
7:25 PM 53.6 °F - 46.4 °F 77% 29.71 in 6.2 mi SW 12.7 mph - N/A   Partly Cloudy
7:55 PM 51.8 °F - 44.6 °F 76% 29.71 in 6.2 mi SSW 11.5 mph - N/A   Mostly Cloudy
8:25 PM 51.8 °F - 46.4 °F 82% 29.74 in 6.2 mi SSW 10.4 mph - N/A   Partly Cloudy
8:55 PM 50.0 °F - 46.4 °F 87% 29.74 in 6.2 mi SSW 11.5 mph - N/A   Unknown
9:25 PM 50.0 °F - 46.4 °F 87% 29.74 in 6.2 mi SSW 11.5 mph - N/A   Unknown
9:55 PM 48.2 °F - 44.6 °F 87% 29.77 in 6.2 mi SSW 6.9 mph - N/A   Unknown
10:25 PM 48.2 °F - 44.6 °F 87% 29.77 in 6.2 mi SSW 6.9 mph - N/A   Partly Cloudy
10:55 PM 48.2 °F - 44.6 °F 87% 29.77 in 6.2 mi SSW 8.1 mph - N/A   Partly Cloudy
11:25 PM 48.2 °F - 44.6 °F 87% 29.80 in 6.2 mi South 8.1 mph - N/A   Unknown
11:55 PM 48.2 °F - 44.6 °F 87% 29.80 in 6.2 mi SSW 8.1 mph - N/A   Partly Cloudy